EW6135 Weather Reports


Display with metric or nautical units.
time (UTC)temp
F
wind
direction
speed
MPH
gust
MPH
rain 1hr
in
rain 24hr
in
rain mn
in
humidity
%
barometer
mb
20260505230519 72 269 1.0 7.0 0.00 0.02 0.00 69 1017.1
20260505230021 72 236 0.0 9.0 0.00 0.02 0.00 69 1017.1
20260505225517 72 240 4.0 9.0 0.00 0.02 0.00 69 1017.1
20260505225022 73 194 2.0 7.0 0.00 0.02 0.00 68 1017.2
20260505224517 73 260 1.0 11.0 0.00 0.02 0.00 69 1017.1
20260505224016 73 283 1.0 8.0 0.00 0.02 0.00 70 1017.1
20260505223516 72 227 0.0 10.0 0.00 0.02 0.00 70 1017.2
20260505223016 71 235 2.0 10.0 0.00 0.02 0.00 70 1017.2
20260505222519 72 233 0.0 7.0 0.00 0.02 0.00 70 1017.2
20260505222016 73 258 2.0 6.0 0.00 0.02 0.00 69 1017.2
20260505221519 74 217 1.0 8.0 0.00 0.02 0.00 68 1017.1
20260505220516 73 300 1.0 8.0 0.00 0.02 0.00 69 1016.9
20260505220016 73 79 1.0 7.0 0.00 0.02 0.00 68 1016.9
20260505215516 73 236 1.0 7.0 0.00 0.02 0.00 69 1017.0
20260505215020 73 231 2.0 10.0 0.00 0.02 0.00 69 1016.9
20260505214516 72 242 3.0 10.0 0.00 0.02 0.00 68 1016.9
20260505214016 73 236 1.0 9.0 0.00 0.02 0.00 68 1016.9
20260505213517 73 134 1.0 16.0 0.00 0.02 0.00 68 1016.9
20260505213014 73 248 3.0 8.0 0.00 0.02 0.00 69 1016.8
20260505212514 73 239 3.0 8.0 0.00 0.02 0.00 68 1016.9
20260505212015 73 293 3.0 8.0 0.00 0.02 0.00 67 1017.0
20260505211515 74 101 3.0 9.0 0.00 0.02 0.00 65 1017.1
20260505210515 74 117 3.0 9.0 0.00 0.02 0.00 64 1017.1
20260505210014 74 257 1.0 9.0 0.00 0.02 0.00 69 1017.2
20260505205514 74 250 1.0 7.0 0.00 0.02 0.00 69 1017.2
20260505205014 74 258 2.0 9.0 0.00 0.02 0.00 67 1017.2
20260505204514 75 252 2.0 15.0 0.00 0.02 0.00 65 1017.1
20260505204013 75 25 2.0 15.0 0.00 0.02 0.00 66 1017.1
20260505203512 75 269 3.0 9.0 0.00 0.02 0.00 66 1017.1
20260505203024 75 313 2.0 11.0 0.00 0.02 0.00 64 1017.2
20260505202512 75 271 4.0 11.0 0.00 0.02 0.00 65 1017.2
20260505202012 76 235 3.0 8.0 0.00 0.02 0.00 64 1017.2
20260505201512 75 134 4.0 13.0 0.00 0.02 0.00 63 1017.3
20260505200512 75 245 5.0 13.0 0.00 0.02 0.00 63 1017.5
20260505200014 76 191 4.0 11.0 0.00 0.02 0.00 63 1017.5
20260505195514 76 236 2.0 12.0 0.00 0.02 0.00 64 1017.6
20260505195012 76 276 1.0 12.0 0.00 0.02 0.00 65 1017.6
20260505194511 76 243 3.0 14.0 0.00 0.02 0.00 63 1017.8
20260505194011 76 272 1.0 14.0 0.00 0.02 0.00 65 1017.9
20260505193510 76 238 2.0 12.0 0.00 0.02 0.00 64 1017.9
20260505193010 75 281 2.0 13.0 0.00 0.02 0.00 64 1017.9
20260505192510 75 233 5.0 10.0 0.00 0.02 0.00 65 1017.9
20260505192010 75 115 1.0 8.0 0.00 0.02 0.00 65 1018.0
20260505191509 74 130 3.0 12.0 0.00 0.02 0.00 64 1018.0
20260505190508 75 205 2.0 8.0 0.00 0.02 0.00 64 1018.1
20260505190009 76 160 1.0 6.0 0.00 0.02 0.00 65 1017.9
20260505185508 75 122 3.0 9.0 0.00 0.02 0.00 65 1018.1
20260505185012 75 264 3.0 10.0 0.00 0.02 0.00 65 1018.1
20260505184516 74 111 1.0 10.0 0.00 0.02 0.00 67 1018.3
20260505184008 74 217 4.0 10.0 0.00 0.02 0.00 65 1018.3
20260505183508 75 305 1.0 7.0 0.00 0.02 0.00 67 1018.3
20260505183006 75 248 2.0 13.0 0.00 0.02 0.00 65 1018.4
20260505182506 75 233 1.0 13.0 0.00 0.02 0.00 65 1018.3
20260505182006 75 102 3.0 10.0 0.00 0.02 0.00 67 1018.2
20260505181505 75 278 3.0 10.0 0.00 0.02 0.00 67 1018.3
20260505180507 75 241 2.0 10.0 0.00 0.02 0.00 67 1018.2
20260505180008 75 230 3.0 10.0 0.00 0.02 0.00 67 1018.3
20260505175505 76 212 3.0 8.0 0.00 0.02 0.00 65 1018.4
20260505175005 76 134 2.0 12.0 0.00 0.02 0.00 66 1018.4
20260505174505 75 226 2.0 12.0 0.00 0.02 0.00 67 1018.4
20260505174004 75 255 1.0 5.0 0.00 0.02 0.00 67 1018.5
20260505173503 75 179 1.0 11.0 0.00 0.02 0.00 67 1018.5
20260505173003 75 258 1.0 8.0 0.00 0.02 0.00 70 1018.5
20260505172502 74 170 3.0 13.0 0.00 0.02 0.00 67 1018.4
20260505172002 75 249 3.0 10.0 0.00 0.02 0.00 65 1018.3
20260505171504 75 258 1.0 6.0 0.00 0.02 0.00 71 1018.4
20260505170601 74 236 1.0 6.0 0.00 0.02 0.00 68 1018.4
20260505170502 74 243 2.0 6.0 0.00 0.02 0.00 68 1018.5
20260505170100 74 94 1.0 6.0 0.00 0.02 0.00 68 1018.5
20260505165600 75 258 2.0 6.0 0.00 0.02 0.00 64 1018.6
20260505165104 76 218 0.0 11.0 0.00 0.02 0.00 69 1018.6
20260505164559 75 247 2.0 11.0 0.00 0.02 0.00 66 1018.8
20260505164059 76 233 1.0 6.0 0.00 0.02 0.00 66 1018.9
20260505163559 75 152 1.0 13.0 0.00 0.02 0.00 69 1018.7
20260505163100 74 159 3.0 13.0 0.00 0.02 0.00 69 1018.8
20260505162600 74 80 3.0 9.0 0.00 0.02 0.00 68 1018.7
20260505162058 74 78 3.0 9.0 0.00 0.02 0.00 67 1018.8
20260505161601 74 266 3.0 11.0 0.00 0.02 0.00 65 1018.8
20260505160602 75 236 3.0 11.0 0.00 0.02 0.00 64 1018.7
20260505153104 76 166 3.0 9.0 0.00 0.02 0.00 61 1018.9
20260505152557 76 159 2.0 9.0 0.00 0.02 0.00 63 1018.9
20260505152054 76 209 4.0 12.0 0.00 0.02 0.00 65 1018.8
20260505151557 76 149 1.0 12.0 0.00 0.02 0.00 62 1018.8
20260505150555 76 101 1.0 12.0 0.00 0.02 0.00 67 1018.8
20260505140554 74 252 4.0 10.0 0.00 0.02 0.00 63 1018.7
20260505125038 70 246 1.0 5.0 0.00 0.02 0.00 75 1018.6
20260505124537 70 269 1.0 5.0 0.00 0.02 0.00 76 1018.7
20260505124036 69 294 1.0 5.0 0.00 0.02 0.00 78 1018.7
20260505123533 68 271 1.0 5.0 0.00 0.02 0.00 80 1018.6
20260505123047 68 254 1.0 3.0 0.00 0.02 0.00 84 1018.7
20260505122530 67 275 0.0 3.0 0.00 0.02 0.00 90 1018.7
20260505122029 65 288 0.0 1.0 0.00 0.02 0.00 96 1018.6
20260505121529 64 266 0.0 3.0 0.00 0.02 0.00 98 1018.6
20260505120526 62 291 0.0 1.0 0.00 0.02 0.00 99 1018.6
20260505120036 61 291 0.0 1.0 0.00 0.02 0.00 99 1018.6
20260505115524 60 291 0.0 1.0 0.00 0.02 0.00 99 1018.5
20260505115023 59 291 0.0 0.0 0.00 0.02 0.00 99 1018.5
20260505114523 58 291 0.0 0.0 0.00 0.02 0.00 99 1018.5
20260505114022 57 291 0.0 0.0 0.00 0.02 0.00 99 1018.5
20260505113521 56 291 0.0 0.0 0.00 0.02 0.00 99 1018.5
20260505113021 55 291 0.0 0.0 0.00 0.02 0.00 99 1018.4
20260505112522 55 291 0.0 0.0 0.00 0.02 0.00 99 1018.3
20260505112020 54 291 0.0 0.0 0.00 0.02 0.00 99 1018.3
20260505111529 54 291 0.0 0.0 0.00 0.02 0.00 99 1018.3
20260505110522 53 291 0.0 0.0 0.00 0.02 0.00 99 1018.2
20260505102012 51 291 0.0 0.0 0.00 0.02 0.00 98 1017.6
20260505101512 52 291 0.0 0.0 0.00 0.02 0.00 98 1017.5
20260505100513 51 291 0.0 0.0 0.00 0.02 0.00 98 1017.4
20260505100011 51 291 0.0 0.0 0.00 0.02 0.00 98 1017.4
20260505095510 52 291 0.0 0.0 0.00 0.02 0.00 98 1017.4
20260505095010 51 291 0.0 0.0 0.00 0.02 0.00 98 1017.4
20260505094509 52 291 0.0 0.0 0.00 0.02 0.00 98 1017.4
20260505094009 52 291 0.0 0.0 0.00 0.02 0.00 98 1017.2
20260505093509 52 291 0.0 0.0 0.00 0.02 0.00 98 1017.2
20260505093009 52 291 0.0 0.0 0.00 0.02 0.00 98 1017.2
20260505092508 52 291 0.0 0.0 0.00 0.02 0.00 98 1017.2
20260505092008 52 291 0.0 0.0 0.00 0.02 0.00 98 1017.2
20260505091510 52 291 0.0 0.0 0.00 0.02 0.00 98 1017.1
20260505090507 52 291 0.0 0.0 0.00 0.02 0.00 98 1017.1
20260505090008 52 291 0.0 0.0 0.00 0.02 0.00 98 1017.0
20260505085507 52 291 0.0 0.0 0.00 0.02 0.00 98 1017.0
20260505085006 52 291 0.0 0.0 0.00 0.02 0.00 98 1017.0
20260505084511 52 291 0.0 0.0 0.00 0.02 0.00 98 1016.9
20260505084006 52 291 0.0 0.0 0.00 0.02 0.00 97 1016.9
20260505083504 52 291 0.0 0.0 0.00 0.02 0.00 97 1016.9
20260505083003 53 291 0.0 0.0 0.00 0.02 0.00 98 1016.9
20260505082506 53 291 0.0 0.0 0.00 0.02 0.00 98 1017.0
20260505082002 53 291 0.0 0.0 0.00 0.02 0.00 98 1016.9
20260505081503 53 291 0.0 0.0 0.00 0.02 0.00 98 1017.0
20260505080502 53 291 0.0 0.0 0.00 0.02 0.00 97 1016.8
20260505080006 53 291 0.0 0.0 0.00 0.02 0.00 97 1016.7
20260505075501 53 291 0.0 0.0 0.00 0.02 0.00 97 1016.7
20260505075001 53 291 0.0 0.0 0.00 0.02 0.00 97 1016.7
20260505074600 53 291 0.0 0.0 0.00 0.02 0.00 97 1016.7
20260505074102 54 291 0.0 0.0 0.00 0.02 0.00 97 1016.6
20260505073559 54 291 0.0 0.0 0.00 0.02 0.00 97 1016.6
20260505073102 54 291 0.0 0.0 0.00 0.02 0.00 97 1016.6
20260505072600 54 291 0.0 0.0 0.00 0.02 0.00 97 1016.6
20260505072058 54 291 0.0 0.0 0.00 0.02 0.00 97 1016.6
20260505071614 54 291 0.0 0.0 0.00 0.02 0.00 97 1016.6
20260505070558 54 291 0.0 1.0 0.00 0.02 0.00 97 1016.6
20260505070057 54 291 0.0 0.0 0.00 0.02 0.00 97 1016.7
20260505065557 54 291 0.0 0.0 0.00 0.02 0.00 97 1016.6
20260505065056 54 291 0.0 0.0 0.00 0.02 0.00 97 1016.6
20260505064603 54 291 0.0 0.0 0.00 0.02 0.00 97 1016.6
20260505064056 54 291 0.0 0.0 0.00 0.02 0.00 96 1016.6
20260505063557 54 291 0.0 0.0 0.00 0.02 0.00 96 1016.7
20260505063055 54 291 0.0 0.0 0.00 0.02 0.00 96 1016.7
20260505062553 54 291 0.0 0.0 0.00 0.02 0.00 96 1016.7
20260505062052 54 291 0.0 0.0 0.00 0.02 0.00 96 1016.7
20260505061556 55 291 0.0 0.0 0.00 0.02 0.00 96 1016.8
20260505060551 55 291 0.0 1.0 0.00 0.02 0.00 95 1016.8
20260505060100 55 291 0.0 1.0 0.00 0.02 0.00 95 1016.9
20260505055550 55 291 0.0 0.0 0.00 0.02 0.00 95 1017.0
20260505055054 55 291 0.0 0.0 0.00 0.02 0.00 94 1017.0
20260505054552 55 291 0.0 0.0 0.00 0.02 0.00 94 1017.0
20260505054048 56 291 0.0 0.0 0.00 0.02 0.00 94 1017.0
20260505053546 56 291 0.0 0.0 0.00 0.02 0.00 94 1017.0
20260505053046 56 291 0.0 0.0 0.00 0.02 0.00 93 1017.0
20260505052545 56 291 0.0 0.0 0.00 0.02 0.00 93 1017.0
20260505052044 56 291 0.0 1.0 0.00 0.02 0.00 93 1017.0
20260505051547 57 291 0.0 1.0 0.00 0.02 0.00 92 1017.1
20260505050543 57 291 0.0 0.0 0.00 0.02 0.00 92 1017.1
20260505041548 59 264 0.0 0.0 0.00 0.02 0.00 87 1017.2
20260505040533 60 264 0.0 0.0 0.00 0.02 0.00 85 1017.3
20260505040034 61 264 0.0 1.0 0.00 0.02 0.00 84 1017.3
20260505035534 61 264 0.0 2.0 0.00 0.02 0.02 83 1017.3
20260505035034 61 264 0.0 2.0 0.00 0.02 0.02 83 1017.3
20260505034532 62 253 0.0 1.0 0.00 0.02 0.02 82 1017.2
20260505034031 62 253 0.0 2.0 0.00 0.02 0.02 81 1017.3
20260505033534 62 264 0.0 3.0 0.00 0.02 0.02 81 1017.2
20260505033034 62 266 0.0 3.0 0.00 0.02 0.02 81 1017.2
20260505032531 62 288 0.0 3.0 0.00 0.02 0.02 80 1017.2
20260505032032 62 227 0.0 2.0 0.00 0.02 0.02 81 1017.3
20260505031530 62 253 0.0 2.0 0.00 0.02 0.02 80 1017.2
20260505030532 62 259 0.0 2.0 0.00 0.02 0.02 79 1017.3
20260505030030 62 221 0.0 2.0 0.00 0.02 0.02 79 1017.3
20260505025530 62 205 1.0 3.0 0.00 0.02 0.02 79 1017.4
20260505025029 62 218 0.0 3.0 0.00 0.02 0.02 79 1017.3
20260505024529 62 237 1.0 3.0 0.00 0.02 0.02 79 1017.3
20260505024029 62 244 0.0 3.0 0.00 0.02 0.02 79 1017.3
20260505023530 62 246 0.0 3.0 0.00 0.02 0.02 79 1017.3
20260505023030 62 254 0.0 3.0 0.00 0.02 0.02 78 1017.3
20260505022529 62 256 0.0 2.0 0.00 0.02 0.02 79 1017.3
20260505022029 62 244 0.0 3.0 0.00 0.02 0.02 78 1017.4
20260505021531 63 244 0.0 3.0 0.00 0.02 0.02 78 1017.4
20260505020530 63 258 1.0 5.0 0.00 0.02 0.02 78 1017.4
20260505020039 63 265 0.0 3.0 0.00 0.02 0.02 78 1017.4
20260505015530 63 228 0.0 3.0 0.00 0.02 0.02 77 1017.4
20260505015031 62 242 0.0 2.0 0.00 0.02 0.02 77 1017.4
20260505014543 63 241 0.0 1.0 0.00 0.02 0.02 77 1017.3
20260505014030 63 241 0.0 4.0 0.00 0.02 0.02 76 1017.2
20260505013532 63 242 1.0 4.0 0.00 0.02 0.02 75 1017.2
20260505013038 63 212 0.0 3.0 0.00 0.02 0.02 75 1017.1
20260505012530 63 228 0.0 4.0 0.00 0.02 0.02 75 1017.0
20260505012029 64 228 0.0 5.0 0.00 0.02 0.02 74 1017.0
20260505011535 63 243 1.0 5.0 0.01 0.02 0.02 74 1016.9
20260505010527 64 233 0.0 3.0 0.02 0.02 0.02 73 1016.9
20260505010027 64 262 0.0 2.0 0.02 0.02 0.02 73 1016.8
20260505005529 64 245 0.0 4.0 0.02 0.02 0.02 73 1016.7
20260505005028 64 267 0.0 6.0 0.02 0.02 0.02 72 1016.6
20260505004539 64 221 0.0 6.0 0.02 0.02 0.02 73 1016.6
20260505004027 64 278 0.0 1.0 0.02 0.02 0.02 72 1016.5
20260505003527 64 259 0.0 5.0 0.02 0.02 0.02 72 1016.5
20260505003048 64 272 0.0 5.0 0.02 0.02 0.02 71 1016.5
20260505002526 64 330 0.0 5.0 0.02 0.02 0.02 71 1016.5
20260505002026 64 288 1.0 6.0 0.02 0.02 0.02 71 1016.5
20260505001526 64 261 0.0 4.0 0.02 0.02 0.02 71 1016.4
20260505000526 65 235 0.0 3.0 0.00 0.00 0.00 69 1016.3
20260505000126 65 252 1.0 3.0 0.00 0.00 0.00 69 1016.3
20260504235526 65 242 0.0 3.0 0.00 0.00 0.00 68 1016.3
20260504235026 66 250 1.0 8.0 0.00 0.00 0.00 68 1016.3
20260504234525 66 237 0.0 8.0 0.00 0.00 0.00 67 1016.4
20260504234026 66 252 0.0 3.0 0.00 0.00 0.00 67 1016.3
20260504233525 67 228 1.0 6.0 0.00 0.00 0.00 66 1016.2
20260504233028 67 285 1.0 6.0 0.00 0.00 0.00 66 1016.2
20260504232527 67 278 1.0 8.0 0.00 0.00 0.00 65 1016.2
20260504232024 68 299 2.0 10.0 0.00 0.00 0.00 65 1016.2
20260504231525 68 259 3.0 10.0 0.00 0.00 0.00 63 1016.1